When you browse on this site, cookies collect data to enhance your experience and personalize the content and advertising you see.
Visit our Privacy Policy to learn more. By continuing to use the site, you agree to this use of cookies and data.
  • In Romania
  • List of Countries
  • For 7 days
  • Water Temperature
  • Satellite Maps
  • Weather Map
  • Weather Widgets
  • user-avatar
    Login

    Hourly Weather Wronki

    Today, 23 March, Saturday

    Time Temperature Precipitation Wind Pressure Humidity
    00:00 +7°C° 0 mm 2 mps 766 mmHg 94%
    01:00 +7°C° 0 mm 2 mps 765 mmHg 94%
    02:00 +7°C° 0 mm 2 mps 765 mmHg 94%
    03:00 +7°C° 0 mm 2 mps 765 mmHg 95%
    04:00 +7°C° 0 mm 2 mps 764 mmHg 95%
    05:00 +7°C° 0 mm 2 mps 764 mmHg 94%
    06:00 +7°C° 0 mm 2 mps 764 mmHg 93%
    07:00 +8°C° 0 mm 2 mps 764 mmHg 92%
    08:00 +10°C° 0 mm 2 mps 764 mmHg 83%
    09:00 +14°C° 0 mm 2 mps 763 mmHg 73%
    10:00 +16°C° 0 mm 2 mps 763 mmHg 64%
    11:00 +17°C° 0 mm 3 mps 763 mmHg 58%
    12:00 +19°C° 0 mm 3 mps 763 mmHg 53%
    13:00 +20°C° 0 mm 3 mps 763 mmHg 48%
    14:00 +20°C° 0 mm 3 mps 762 mmHg 49%
    15:00 +20°C° 0 mm 4 mps 762 mmHg 50%
    16:00 +20°C° 0 mm 4 mps 762 mmHg 51%
    17:00 +18°C° 0 mm 4 mps 762 mmHg 59%
    18:00 +15°C° 0 mm 4 mps 763 mmHg 67%
    19:00 +13°C° 0 mm 4 mps 763 mmHg 75%
    20:00 +12°C° 0 mm 4 mps 763 mmHg 76%
    21:00 +11°C° 0 mm 4 mps 764 mmHg 76%
    22:00 +8°C° 0 mm 4 mps 764 mmHg 77%
    23:00 +8°C° 0 mm 3 mps 765 mmHg 77%

    Tomorrow, 24 March, Sunday

    Time Temperature Precipitation Wind Pressure Humidity
    00:00 +8°C° 0 mm 3 mps 765 mmHg 77%
    01:00 +7°C° 0 mm 2 mps 765 mmHg 77%
    02:00 +6°C° 0 mm 2 mps 765 mmHg 79%
    03:00 +6°C° 0 mm 2 mps 765 mmHg 81%
    04:00 +5°C° 0 mm 2 mps 765 mmHg 82%
    05:00 +5°C° 0 mm 2 mps 765 mmHg 81%
    06:00 +6°C° 0 mm 1 mps 765 mmHg 79%
    07:00 +6°C° 0 mm 1 mps 765 mmHg 78%
    08:00 +7°C° 0 mm 1 mps 765 mmHg 68%
    09:00 +7°C° 0 mm 2 mps 765 mmHg 57%
    10:00 +9°C° 0 mm 2 mps 765 mmHg 47%
    11:00 +10°C° 0 mm 2 mps 764 mmHg 44%
    12:00 +10°C° 0 mm 2 mps 764 mmHg 41%
    13:00 +12°C° 0 mm 2 mps 763 mmHg 38%
    14:00 +12°C° 0 mm 2 mps 762 mmHg 37%
    15:00 +12°C° 0 mm 2 mps 762 mmHg 37%
    16:00 +12°C° 0 mm 2 mps 761 mmHg 36%
    17:00 +10°C° 0 mm 2 mps 761 mmHg 41%
    18:00 +9°C° 0 mm 2 mps 761 mmHg 45%
    19:00 +8°C° 0 mm 2 mps 761 mmHg 49%
    20:00 +7°C° 0 mm 2 mps 761 mmHg 53%
    21:00 +7°C° 0 mm 1 mps 761 mmHg 57%
    22:00 +6°C° 0 mm 1 mps 761 mmHg 61%
    23:00 +6°C° 0 mm 1 mps 760 mmHg 62%

    Day after tomorrow, 25 March, Monday

    Time Temperature Precipitation Wind Pressure Humidity
    00:00 +6°C° 0 mm 1 mps 760 mmHg 64%
    01:00 +5°C° 0 mm 1 mps 759 mmHg 65%
    02:00 +4°C° 0 mm 2 mps 759 mmHg 67%
    03:00 +3°C° 0 mm 2 mps 758 mmHg 69%
    04:00 +2°C° 0 mm 3 mps 758 mmHg 71%
    05:00 +2°C° 0 mm 3 mps 757 mmHg 70%
    06:00 +1°C° 0 mm 4 mps 757 mmHg 70%
    07:00 +1°C° 0 mm 5 mps 756 mmHg 69%
    08:00 +2°C° 0.3 mm 5 mps 756 mmHg 70%
    09:00 +2°C° 0.3 mm 6 mps 755 mmHg 71%
    10:00 +3°C° 0.3 mm 7 mps 755 mmHg 72%
    11:00 +4°C° 0.4 mm 7 mps 755 mmHg 66%
    12:00 +5°C° 0.4 mm 8 mps 755 mmHg 60%
    13:00 +5°C° 0.4 mm 8 mps 755 mmHg 54%
    14:00 +5°C° 0.3 mm 7 mps 755 mmHg 55%
    15:00 +5°C° 0.3 mm 7 mps 755 mmHg 55%
    16:00 +5°C° 0.3 mm 7 mps 755 mmHg 56%
    17:00 +4°C° 0.4 mm 6 mps 755 mmHg 62%
    18:00 +3°C° 0.4 mm 6 mps 756 mmHg 68%
    19:00 +3°C° 0.4 mm 5 mps 756 mmHg 74%
    20:00 +2°C° 0 mm 5 mps 757 mmHg 77%
    21:00 +1°C° 0 mm 5 mps 758 mmHg 79%
    22:00 +1°C° 0 mm 5 mps 759 mmHg 82%
    23:00 +1°C° 0 mm 5 mps 760 mmHg 84%

    26 March, Tuesday

    Time Temperature Precipitation Wind Pressure Humidity
    00:00 0°C° 0 mm 5 mps 761 mmHg 86%
    01:00 0°C° 0 mm 5 mps 762 mmHg 88%
    02:00 0°C° 0 mm 4 mps 762 mmHg 89%
    03:00 -1°C° 0 mm 4 mps 763 mmHg 90%
    04:00 -1°C° 0 mm 4 mps 763 mmHg 90%
    05:00 -1°C° 0 mm 4 mps 764 mmHg 89%
    06:00 0°C° 0 mm 3 mps 765 mmHg 88%
    07:00 0°C° 0 mm 3 mps 765 mmHg 87%
    08:00 +1°C° 0 mm 3 mps 765 mmHg 79%
    09:00 +3°C° 0 mm 4 mps 765 mmHg 71%
    10:00 +5°C° 0 mm 4 mps 766 mmHg 63%
    11:00 +6°C° 0 mm 5 mps 765 mmHg 56%
    12:00 +7°C° 0 mm 5 mps 765 mmHg 50%
    13:00 +8°C° 0 mm 6 mps 765 mmHg 44%
    14:00 +8°C° 0 mm 6 mps 764 mmHg 48%
    15:00 +8°C° 0 mm 7 mps 764 mmHg 51%
    16:00 +6°C° 0 mm 7 mps 764 mmHg 55%
    17:00 +5°C° 0 mm 6 mps 764 mmHg 60%
    18:00 +5°C° 0 mm 6 mps 764 mmHg 65%
    19:00 +5°C° 0 mm 5 mps 764 mmHg 71%
    20:00 +3°C° 0 mm 5 mps 764 mmHg 75%
    21:00 +4°C° 0 mm 4 mps 764 mmHg 79%
    22:00 +4°C° 0 mm 4 mps 764 mmHg 83%
    23:00 +4°C° 0.1 mm 4 mps 764 mmHg 84%

    27 March, Wednesday

    Time Temperature Precipitation Wind Pressure Humidity
    00:00 +3°C° 0.1 mm 5 mps 764 mmHg 84%
    01:00 +3°C° 0.1 mm 5 mps 764 mmHg 84%
    02:00 +3°C° 0.1 mm 5 mps 764 mmHg 85%
    03:00 +4°C° 0.1 mm 4 mps 764 mmHg 86%
    04:00 +4°C° 0.1 mm 4 mps 764 mmHg 87%
    05:00 +4°C° 0 mm 4 mps 764 mmHg 86%
    06:00 +4°C° 0 mm 4 mps 764 mmHg 85%
    07:00 +4°C° 0 mm 4 mps 764 mmHg 84%
    08:00 +5°C° 0.1 mm 4 mps 764 mmHg 82%
    09:00 +5°C° 0.1 mm 4 mps 764 mmHg 79%
    10:00 +6°C° 0.1 mm 4 mps 764 mmHg 77%
    11:00 +6°C° 0.1 mm 4 mps 764 mmHg 76%
    12:00 +6°C° 0.1 mm 5 mps 764 mmHg 75%
    13:00 +7°C° 0.1 mm 5 mps 763 mmHg 73%
    14:00 +7°C° 0.1 mm 5 mps 763 mmHg 74%
    15:00 +7°C° 0.1 mm 5 mps 763 mmHg 75%
    16:00 +7°C° 0.1 mm 5 mps 763 mmHg 76%
    17:00 +7°C° 0.5 mm 4 mps 763 mmHg 81%
    18:00 +6°C° 0.5 mm 4 mps 763 mmHg 86%
    19:00 +7°C° 0.5 mm 3 mps 763 mmHg 90%
    20:00 +7°C° 0 mm 3 mps 764 mmHg 92%
    21:00 +7°C° 0 mm 3 mps 764 mmHg 93%
    22:00 +7°C° 0 mm 2 mps 764 mmHg 94%
    23:00 +6°C° 0 mm 2 mps 765 mmHg 95%

    28 March, Thursday

    Time Temperature Precipitation Wind Pressure Humidity
    00:00 +6°C° 0 mm 2 mps 765 mmHg 96%
    01:00 +6°C° 0 mm 2 mps 765 mmHg 97%
    02:00 +5°C° 0 mm 2 mps 766 mmHg 96%
    03:00 +5°C° 0 mm 2 mps 766 mmHg 96%
    04:00 +5°C° 0 mm 2 mps 766 mmHg 96%
    05:00 +5°C° 0 mm 2 mps 767 mmHg 94%
    06:00 +5°C° 0 mm 2 mps 767 mmHg 92%
    07:00 +6°C° 0 mm 2 mps 768 mmHg 90%
    08:00 +6°C° 0 mm 2 mps 768 mmHg 86%
    09:00 +6°C° 0 mm 2 mps 769 mmHg 82%
    10:00 +7°C° 0 mm 2 mps 769 mmHg 79%
    11:00 +7°C° 0 mm 2 mps 769 mmHg 76%
    12:00 +8°C° 0 mm 2 mps 769 mmHg 73%
    13:00 +8°C° 0 mm 2 mps 770 mmHg 70%
    14:00 +8°C° 0 mm 2 mps 770 mmHg 70%
    15:00 +8°C° 0 mm 2 mps 770 mmHg 70%
    16:00 +8°C° 0 mm 2 mps 770 mmHg 69%
    17:00 +9°C° 0 mm 1 mps 770 mmHg 73%
    18:00 +8°C° 0 mm 1 mps 770 mmHg 76%
    19:00 +6°C° 0 mm 0 mps 770 mmHg 80%
    20:00 +5°C° 0 mm 0 mps 770 mmHg 82%
    21:00 +5°C° 0 mm 0 mps 770 mmHg 84%
    22:00 +4°C° 0 mm 0 mps 770 mmHg 87%
    23:00 +4°C° 0 mm 0 mps 771 mmHg 87%
    Show more